When you browse on this site, cookies collect data to enhance your experience and personalize the content and advertising you see.
Visit our Privacy Policy to learn more. By continuing to use the site, you agree to this use of cookies and data.
  • En España
  • Lista de países
  • Para 7 días
  • Temperatura del agua
  • El tiempo en el mapa
  • Informadores
  • user-avatar
    Iniciar sesión

    Tiempo cada hora Belopole

    Hoy, 10 Abril, Viernes

    Tiempo Temperatura Precipitaciones Viento Presión Humedad
    00:00 +9°C° 0 mm 3 mps 746 mmHg 59%
    01:00 +8°C° 0 mm 4 mps 746 mmHg 59%
    02:00 +8°C° 0 mm 4 mps 745 mmHg 57%
    03:00 +9°C° 0 mm 3 mps 745 mmHg 59%
    04:00 +8°C° 0 mm 3 mps 744 mmHg 60%
    05:00 +8°C° 0 mm 3 mps 744 mmHg 62%
    06:00 +8°C° 0.1 mm 4 mps 744 mmHg 66%
    07:00 +10°C° 0.1 mm 4 mps 744 mmHg 70%
    08:00 +10°C° 0.1 mm 5 mps 744 mmHg 74%
    09:00 +9°C° 0.4 mm 5 mps 744 mmHg 73%
    10:00 +9°C° 0.4 mm 5 mps 744 mmHg 72%
    11:00 +9°C° 0.4 mm 6 mps 745 mmHg 72%
    12:00 +10°C° 0.1 mm 6 mps 745 mmHg 64%
    13:00 +10°C° 0.1 mm 6 mps 745 mmHg 57%
    14:00 +11°C° 0.1 mm 7 mps 746 mmHg 50%
    15:00 +10°C° 0 mm 6 mps 746 mmHg 49%
    16:00 +10°C° 0 mm 6 mps 746 mmHg 48%
    17:00 +9°C° 0 mm 6 mps 746 mmHg 47%
    18:00 +8°C° 0 mm 5 mps 747 mmHg 51%
    19:00 +7°C° 0 mm 5 mps 747 mmHg 54%
    20:00 +6°C° 0 mm 4 mps 747 mmHg 57%
    21:00 +5°C° 0 mm 4 mps 747 mmHg 60%
    22:00 +5°C° 0 mm 4 mps 748 mmHg 62%
    23:00 +4°C° 0 mm 4 mps 748 mmHg 65%

    Mañana, 11 Abril, Sábado

    Tiempo Temperatura Precipitaciones Viento Presión Humedad
    00:00 +4°C° 0 mm 4 mps 748 mmHg 66%
    01:00 +3°C° 0 mm 4 mps 748 mmHg 68%
    02:00 +3°C° 0 mm 4 mps 748 mmHg 69%
    03:00 +1°C° 0 mm 4 mps 748 mmHg 72%
    04:00 +2°C° 0 mm 3 mps 748 mmHg 74%
    05:00 +2°C° 0 mm 3 mps 749 mmHg 76%
    06:00 +3°C° 0 mm 4 mps 749 mmHg 70%
    07:00 +4°C° 0 mm 4 mps 749 mmHg 64%
    08:00 +5°C° 0 mm 5 mps 749 mmHg 58%
    09:00 +6°C° 0.1 mm 5 mps 749 mmHg 54%
    10:00 +7°C° 0.1 mm 6 mps 749 mmHg 50%
    11:00 +8°C° 0.1 mm 6 mps 749 mmHg 46%
    12:00 +8°C° 0.2 mm 7 mps 749 mmHg 45%
    13:00 +8°C° 0.2 mm 7 mps 750 mmHg 44%
    14:00 +7°C° 0.2 mm 8 mps 750 mmHg 43%
    15:00 +7°C° 0 mm 8 mps 750 mmHg 41%
    16:00 +6°C° 0 mm 8 mps 750 mmHg 39%
    17:00 +6°C° 0 mm 7 mps 750 mmHg 37%
    18:00 +4°C° 0 mm 6 mps 751 mmHg 43%
    19:00 +3°C° 0 mm 5 mps 752 mmHg 49%
    20:00 +3°C° 0 mm 4 mps 752 mmHg 55%
    21:00 +3°C° 0 mm 4 mps 752 mmHg 57%
    22:00 +1°C° 0 mm 4 mps 753 mmHg 59%
    23:00 +1°C° 0 mm 5 mps 753 mmHg 62%

    Pasado mañana, 12 Abril, Domingo

    Tiempo Temperatura Precipitaciones Viento Presión Humedad
    00:00 0°C° 0 mm 5 mps 753 mmHg 62%
    01:00 0°C° 0 mm 4 mps 754 mmHg 63%
    02:00 -1°C° 0 mm 4 mps 754 mmHg 64%
    03:00 -1°C° 0 mm 4 mps 754 mmHg 64%
    04:00 -2°C° 0 mm 4 mps 755 mmHg 64%
    05:00 -1°C° 0 mm 3 mps 755 mmHg 64%
    06:00 -1°C° 0 mm 4 mps 755 mmHg 58%
    07:00 +1°C° 0 mm 4 mps 755 mmHg 53%
    08:00 +2°C° 0 mm 5 mps 756 mmHg 48%
    09:00 +3°C° 0 mm 5 mps 756 mmHg 44%
    10:00 +5°C° 0 mm 4 mps 756 mmHg 40%
    11:00 +6°C° 0 mm 4 mps 756 mmHg 36%
    12:00 +7°C° 0 mm 4 mps 755 mmHg 34%
    13:00 +8°C° 0 mm 4 mps 755 mmHg 33%
    14:00 +8°C° 0 mm 4 mps 755 mmHg 31%
    15:00 +8°C° 0 mm 4 mps 754 mmHg 32%
    16:00 +8°C° 0 mm 4 mps 754 mmHg 33%
    17:00 +8°C° 0 mm 4 mps 754 mmHg 34%
    18:00 +7°C° 0 mm 3 mps 754 mmHg 38%
    19:00 +5°C° 0 mm 3 mps 754 mmHg 42%
    20:00 +5°C° 0 mm 2 mps 754 mmHg 46%
    21:00 +5°C° 0 mm 2 mps 753 mmHg 47%
    22:00 +4°C° 0 mm 2 mps 753 mmHg 48%
    23:00 +3°C° 0 mm 3 mps 753 mmHg 50%

    13 Abril, Lunes

    Tiempo Temperatura Precipitaciones Viento Presión Humedad
    00:00 +3°C° 0 mm 3 mps 753 mmHg 51%
    01:00 +2°C° 0 mm 3 mps 752 mmHg 52%
    02:00 +2°C° 0 mm 3 mps 752 mmHg 53%
    03:00 +1°C° 0 mm 3 mps 752 mmHg 54%
    04:00 +1°C° 0 mm 3 mps 752 mmHg 55%
    05:00 0°C° 0 mm 4 mps 751 mmHg 55%
    06:00 +3°C° 0 mm 4 mps 751 mmHg 51%
    07:00 +5°C° 0 mm 5 mps 751 mmHg 47%
    08:00 +5°C° 0 mm 6 mps 750 mmHg 43%
    09:00 +8°C° 0 mm 6 mps 750 mmHg 41%
    10:00 +9°C° 0 mm 7 mps 749 mmHg 40%
    11:00 +11°C° 0 mm 7 mps 749 mmHg 39%
    12:00 +12°C° 0 mm 7 mps 748 mmHg 39%
    13:00 +13°C° 0 mm 8 mps 748 mmHg 40%
    14:00 +13°C° 0 mm 8 mps 747 mmHg 40%
    15:00 +13°C° 0 mm 8 mps 747 mmHg 42%
    16:00 +14°C° 0 mm 7 mps 746 mmHg 44%
    17:00 +14°C° 0 mm 7 mps 745 mmHg 45%
    18:00 +12°C° 0 mm 7 mps 745 mmHg 49%
    19:00 +11°C° 0 mm 7 mps 745 mmHg 53%
    20:00 +10°C° 0 mm 7 mps 744 mmHg 57%
    21:00 +10°C° 0 mm 7 mps 744 mmHg 58%
    22:00 +9°C° 0 mm 8 mps 743 mmHg 60%
    23:00 +9°C° 0 mm 8 mps 743 mmHg 61%

    14 Abril, Martes

    Tiempo Temperatura Precipitaciones Viento Presión Humedad
    00:00 +7°C° 0 mm 8 mps 742 mmHg 62%
    01:00 +7°C° 0 mm 8 mps 742 mmHg 62%
    02:00 +6°C° 0 mm 8 mps 741 mmHg 63%
    03:00 +6°C° 0 mm 8 mps 741 mmHg 60%
    04:00 +6°C° 0 mm 8 mps 740 mmHg 58%
    05:00 +5°C° 0 mm 9 mps 740 mmHg 56%
    06:00 +6°C° 0 mm 9 mps 739 mmHg 57%
    07:00 +6°C° 0 mm 10 mps 739 mmHg 59%
    08:00 +6°C° 0 mm 10 mps 738 mmHg 60%
    09:00 +7°C° 0.1 mm 10 mps 738 mmHg 63%
    10:00 +7°C° 0.1 mm 10 mps 738 mmHg 65%
    11:00 +7°C° 0.1 mm 9 mps 738 mmHg 68%
    12:00 +7°C° 1.3 mm 8 mps 739 mmHg 75%
    13:00 +6°C° 1.3 mm 7 mps 739 mmHg 81%
    14:00 +5°C° 1.3 mm 6 mps 739 mmHg 88%
    15:00 +4°C° 1.5 mm 6 mps 739 mmHg 90%
    16:00 +2°C° 1.5 mm 6 mps 739 mmHg 92%
    17:00 +1°C° 1.5 mm 6 mps 739 mmHg 94%
    18:00 -1°C° 1.8 mm 6 mps 739 mmHg 94%
    19:00 -1°C° 1.8 mm 6 mps 739 mmHg 93%
    20:00 -2°C° 1.8 mm 6 mps 740 mmHg 93%
    21:00 -1°C° 0.6 mm 5 mps 740 mmHg 89%
    22:00 -1°C° 0.6 mm 4 mps 740 mmHg 86%
    23:00 0°C° 0.6 mm 3 mps 740 mmHg 82%

    15 Abril, Miércoles

    Tiempo Temperatura Precipitaciones Viento Presión Humedad
    00:00 0°C° 0 mm 3 mps 740 mmHg 81%
    01:00 0°C° 0 mm 3 mps 740 mmHg 80%
    02:00 0°C° 0 mm 3 mps 740 mmHg 79%
    03:00 -1°C° 0 mm 4 mps 740 mmHg 79%
    04:00 -2°C° 0 mm 4 mps 740 mmHg 80%
    05:00 -2°C° 0 mm 4 mps 741 mmHg 80%
    06:00 -2°C° 0 mm 4 mps 741 mmHg 80%
    07:00 -1°C° 0 mm 5 mps 741 mmHg 81%
    08:00 -1°C° 0 mm 5 mps 741 mmHg 81%
    09:00 -1°C° 0.3 mm 6 mps 741 mmHg 74%
    10:00 +1°C° 0.3 mm 6 mps 741 mmHg 68%
    11:00 +2°C° 0.3 mm 7 mps 741 mmHg 61%
    12:00 +2°C° 0.4 mm 7 mps 741 mmHg 58%
    13:00 +3°C° 0.4 mm 7 mps 741 mmHg 55%
    14:00 +2°C° 0.4 mm 8 mps 741 mmHg 52%
    15:00 +2°C° 0.3 mm 8 mps 741 mmHg 54%
    16:00 +2°C° 0.3 mm 8 mps 742 mmHg 56%
    17:00 +1°C° 0.3 mm 8 mps 742 mmHg 58%
    18:00 +2°C° 0.1 mm 7 mps 742 mmHg 62%
    19:00 +1°C° 0.1 mm 6 mps 742 mmHg 66%
    20:00 0°C° 0.1 mm 5 mps 743 mmHg 71%
    21:00 0°C° 0 mm 5 mps 743 mmHg 73%
    22:00 -1°C° 0 mm 4 mps 743 mmHg 76%
    23:00 -1°C° 0 mm 4 mps 743 mmHg 79%
    Mostrar más